1 Minute Report
Date Time Wind Direction Wind Speed Wind Gust Wind Variable Altimeter Temperature Dewpoint Relative Humidity Visibility Ceiling Precip Present Weather Density Alt Wind Chill Heat Index
18/08/21 00:20 000 00 N/A N/A 30.14 65(F), 18(C) 64(F), 18(C) 100% 10 SCT055 N/A N/A N/A 65 F N/A 1716
18/08/21 00:19 000 00 N/A N/A 30.14 65(F), 18(C) 64(F), 18(C) 100% 10 SCT055 N/A N/A N/A 65 F N/A 1715
18/08/21 00:18 000 00 N/A N/A 30.14 65(F), 18(C) 63(F), 17(C) 94% 10 SCT055 N/A N/A N/A 65 F N/A 1714
18/08/21 00:17 000 00 N/A N/A 30.14 65(F), 18(C) 63(F), 17(C) 94% 10 SCT055 N/A N/A N/A 65 F N/A 1713
18/08/21 00:16 000 00 N/A N/A 30.14 65(F), 18(C) 63(F), 17(C) 94% 10 SCT055 N/A N/A N/A 65 F N/A 1712
18/08/21 00:15 000 00 N/A N/A 30.14 66(F), 19(C) 63(F), 17(C) 88% 10 SCT055 N/A N/A N/A 66 F N/A 1711
18/08/21 00:14 000 00 N/A N/A 30.14 66(F), 19(C) 63(F), 17(C) 88% 10 SCT055 N/A N/A N/A 66 F N/A 1710
18/08/21 00:13 000 00 N/A N/A 30.14 67(F), 19(C) 64(F), 18(C) 94% 10 SCT055 N/A N/A N/A 67 F N/A 1709
18/08/21 00:12 000 00 N/A N/A 30.14 67(F), 19(C) 64(F), 18(C) 94% 10 SCT055 N/A N/A N/A 67 F N/A 1708
18/08/21 00:11 000 00 N/A N/A 30.13 68(F), 20(C) 65(F), 18(C) 88% 10 SCT055 N/A N/A N/A 68 F N/A 1707
18/08/21 00:10 000 00 N/A N/A 30.13 68(F), 20(C) 65(F), 18(C) 88% 10 BKN055 N/A N/A N/A 68 F N/A 1706
18/08/21 00:09 000 00 N/A N/A 30.13 68(F), 20(C) 65(F), 18(C) 88% 10 BKN055 N/A N/A N/A 68 F N/A 1705
18/08/21 00:08 000 00 N/A N/A 30.13 68(F), 20(C) 65(F), 18(C) 88% 10 BKN055 N/A N/A N/A 68 F N/A 1704
18/08/21 00:07 000 00 N/A N/A 30.13 68(F), 20(C) 64(F), 18(C) 88% 10 SCT055 N/A N/A N/A 68 F N/A 1703
18/08/21 00:06 000 00 N/A N/A 30.13 68(F), 20(C) 64(F), 18(C) 88% 10 SCT055 N/A N/A N/A 68 F N/A 1702
18/08/21 00:05 000 00 N/A N/A 30.13 68(F), 20(C) 64(F), 18(C) 88% 10 SCT055 N/A N/A N/A 68 F N/A 1701
18/08/21 00:04 000 00 N/A N/A 30.13 68(F), 20(C) 64(F), 18(C) 88% 10 SCT055 N/A N/A N/A 68 F N/A 1700
18/08/21 00:03 000 00 N/A N/A 30.13 68(F), 20(C) 64(F), 18(C) 88% 10 SCT055 N/A N/A N/A 68 F N/A 1699
18/08/21 00:02 000 00 N/A N/A 30.13 68(F), 20(C) 63(F), 17(C) 83% 10 SCT055 N/A N/A N/A 68 F N/A 1698
18/08/21 00:01 000 00 N/A N/A 30.13 68(F), 20(C) 63(F), 17(C) 83% 10 SCT055 N/A N/A N/A 68 F N/A 1697
18/08/21 00:00 000 00 N/A N/A 30.13 68(F), 20(C) 62(F), 17(C) 83% 10 SCT055 N/A N/A N/A 68 F N/A 1696
18/08/20 23:59 000 00 N/A N/A 30.13 68(F), 20(C) 62(F), 17(C) 83% 10 SCT055 N/A N/A N/A 68 F N/A 1695
18/08/20 23:58 000 00 N/A N/A 30.13 68(F), 20(C) 62(F), 17(C) 83% 10 SCT055 N/A N/A N/A 68 F N/A 1694
18/08/20 23:57 000 00 N/A N/A 30.13 68(F), 20(C) 62(F), 17(C) 83% 10 SCT055 N/A N/A N/A 68 F N/A 1693
18/08/20 23:56 000 00 N/A N/A 30.13 68(F), 20(C) 62(F), 17(C) 83% 10 SCT055 N/A N/A N/A 68 F N/A 1692
18/08/20 23:55 000 00 N/A N/A 30.13 68(F), 20(C) 62(F), 17(C) 83% 10 SCT055 N/A N/A N/A 68 F N/A 1691
18/08/20 23:54 000 00 N/A N/A 30.13 68(F), 20(C) 62(F), 17(C) 83% 10 SCT055 N/A N/A N/A 68 F N/A 1690
18/08/20 23:53 000 00 N/A N/A 30.13 68(F), 20(C) 62(F), 17(C) 83% 10 SCT055 N/A N/A N/A 68 F N/A 1689
18/08/20 23:52 000 00 N/A N/A 30.13 68(F), 20(C) 62(F), 17(C) 83% 10 SCT055 N/A N/A N/A 68 F N/A 1688
18/08/20 23:51 000 00 N/A N/A 30.13 68(F), 20(C) 62(F), 17(C) 83% 10 SCT055 N/A N/A N/A 68 F N/A 1687
18/08/20 23:50 000 00 N/A N/A 30.13 68(F), 20(C) 62(F), 17(C) 83% 10 SCT055 N/A N/A N/A 68 F N/A 1686
18/08/20 23:49 000 00 N/A N/A 30.13 68(F), 20(C) 62(F), 17(C) 83% 10 SCT055 N/A N/A N/A 68 F N/A 1685
18/08/20 23:48 000 00 N/A N/A 30.13 68(F), 20(C) 62(F), 17(C) 83% 10 SCT055 N/A N/A N/A 68 F N/A 1684
18/08/20 23:47 000 00 N/A N/A 30.13 68(F), 20(C) 62(F), 17(C) 83% 10 SCT055 N/A N/A N/A 68 F N/A 1683
18/08/20 23:46 000 00 N/A N/A 30.13 68(F), 20(C) 62(F), 17(C) 83% 10 SCT055 N/A N/A N/A 68 F N/A 1682
18/08/20 23:45 000 00 N/A N/A 30.13 68(F), 20(C) 63(F), 17(C) 83% 10 SCT055 N/A N/A N/A 68 F N/A 1681
18/08/20 23:44 000 00 N/A N/A 30.13 68(F), 20(C) 63(F), 17(C) 83% 10 SCT055 N/A N/A N/A 68 F N/A 1680
18/08/20 23:43 000 00 N/A N/A 30.13 68(F), 20(C) 63(F), 17(C) 83% 10 SCT055 N/A N/A N/A 68 F N/A 1679
18/08/20 23:42 000 00 N/A N/A 30.13 68(F), 20(C) 63(F), 17(C) 83% 10 SCT055 N/A N/A N/A 68 F N/A 1678
18/08/20 23:41 000 00 N/A N/A 30.13 68(F), 20(C) 63(F), 17(C) 83% 10 SCT055 N/A N/A N/A 68 F N/A 1677
18/08/20 23:40 000 00 N/A N/A 30.13 68(F), 20(C) 63(F), 17(C) 83% 10 CLR N/A N/A N/A 68 F N/A 1676
18/08/20 23:39 000 00 N/A N/A 30.13 68(F), 20(C) 63(F), 17(C) 83% 10 CLR N/A N/A N/A 68 F N/A 1675
18/08/20 23:38 000 00 N/A N/A 30.13 68(F), 20(C) 63(F), 17(C) 83% 10 CLR N/A N/A N/A 68 F N/A 1674
18/08/20 23:37 000 00 N/A N/A 30.13 68(F), 20(C) 63(F), 17(C) 83% 10 CLR N/A N/A N/A 68 F N/A 1673
18/08/20 23:36 000 00 N/A N/A 30.13 68(F), 20(C) 63(F), 17(C) 83% 10 CLR N/A N/A N/A 68 F N/A 1672
18/08/20 23:35 000 00 N/A N/A 30.12 68(F), 20(C) 63(F), 17(C) 83% 10 SCT055 N/A N/A N/A 68 F N/A 1671
18/08/20 23:34 000 00 N/A N/A 30.12 68(F), 20(C) 63(F), 17(C) 83% 10 SCT055 N/A N/A N/A 68 F N/A 1670
18/08/20 23:33 000 00 N/A N/A 30.12 68(F), 20(C) 63(F), 17(C) 83% 10 SCT055 N/A N/A N/A 68 F N/A 1669
18/08/20 23:32 000 00 N/A N/A 30.12 68(F), 20(C) 63(F), 17(C) 83% 10 SCT055 N/A N/A N/A 68 F N/A 1668
18/08/20 23:31 000 00 N/A N/A 30.12 68(F), 20(C) 63(F), 17(C) 83% 10 SCT055 N/A N/A N/A 68 F N/A 1667
18/08/20 23:30 000 00 N/A N/A 30.12 68(F), 20(C) 63(F), 17(C) 83% 10 SCT055 N/A N/A N/A 68 F N/A 1666
18/08/20 23:29 000 00 N/A N/A 30.12 68(F), 20(C) 63(F), 17(C) 83% 10 SCT055 N/A N/A N/A 68 F N/A 1665
18/08/20 23:28 000 00 N/A N/A 30.12 68(F), 20(C) 63(F), 17(C) 83% 10 SCT055 N/A N/A N/A 68 F N/A 1664
18/08/20 23:27 000 00 N/A N/A 30.12 68(F), 20(C) 62(F), 17(C) 83% 10 SCT055 N/A N/A N/A 68 F N/A 1663
18/08/20 23:26 000 00 N/A N/A 30.12 68(F), 20(C) 62(F), 17(C) 83% 10 SCT055 N/A N/A N/A 68 F N/A 1662
18/08/20 23:25 000 00 N/A N/A 30.12 68(F), 20(C) 62(F), 17(C) 83% 10 SCT055 N/A N/A N/A 68 F N/A 1661
18/08/20 23:24 000 00 N/A N/A 30.12 68(F), 20(C) 62(F), 17(C) 83% 10 SCT055 N/A N/A N/A 68 F N/A 1660
18/08/20 23:23 000 00 N/A N/A 30.12 68(F), 20(C) 62(F), 17(C) 83% 10 SCT055 N/A N/A N/A 68 F N/A 1659
18/08/20 23:22 000 00 N/A N/A 30.12 68(F), 20(C) 61(F), 16(C) 78% 10 SCT055 N/A N/A N/A 68 F N/A 1658
18/08/20 23:21 000 00 N/A N/A 30.12 68(F), 20(C) 61(F), 16(C) 78% 10 SCT055 N/A N/A N/A 68 F N/A 1657
18/08/20 23:20 000 00 N/A N/A 30.12 68(F), 20(C) 61(F), 16(C) 78% 10 SCT055 N/A N/A N/A 68 F N/A 1656
18/08/20 23:19 000 00 N/A N/A 30.12 68(F), 20(C) 61(F), 16(C) 78% 10 SCT055 N/A N/A N/A 68 F N/A 1655
18/08/20 23:18 000 00 N/A N/A 30.12 68(F), 20(C) 61(F), 16(C) 78% 10 SCT055 N/A N/A N/A 68 F N/A 1654
18/08/20 23:17 000 00 N/A N/A 30.12 68(F), 20(C) 61(F), 16(C) 78% 10 SCT055 N/A N/A N/A 68 F N/A 1653
18/08/20 23:16 000 00 N/A N/A 30.12 68(F), 20(C) 61(F), 16(C) 78% 10 SCT055 N/A N/A N/A 68 F N/A 1652
18/08/20 23:15 000 00 N/A N/A 30.12 68(F), 20(C) 61(F), 16(C) 78% 10 SCT055 N/A N/A N/A 68 F N/A 1651
18/08/20 23:14 000 00 N/A N/A 30.12 68(F), 20(C) 61(F), 16(C) 78% 10 SCT055 N/A N/A N/A 68 F N/A 1650
18/08/20 23:13 000 00 N/A N/A 30.12 69(F), 21(C) 61(F), 16(C) 73% 10 SCT055 N/A N/A N/A 69 F N/A 1649
18/08/20 23:12 000 00 N/A N/A 30.12 69(F), 21(C) 61(F), 16(C) 73% 10 SCT055 N/A N/A N/A 69 F N/A 1648
18/08/20 23:11 000 00 N/A N/A 30.12 70(F), 21(C) 61(F), 16(C) 73% 10 SCT055 N/A N/A N/A 70 F N/A 1647
18/08/20 23:10 000 00 N/A N/A 30.12 70(F), 21(C) 61(F), 16(C) 73% 10 SCT055 N/A N/A N/A 70 F N/A 1646
18/08/20 23:09 000 00 N/A N/A 30.12 70(F), 21(C) 61(F), 16(C) 73% 10 SCT055 N/A N/A N/A 70 F N/A 1645
18/08/20 23:08 000 00 N/A N/A 30.12 70(F), 21(C) 61(F), 16(C) 73% 10 SCT055 N/A N/A N/A 70 F N/A 1644
18/08/20 23:07 000 00 N/A N/A 30.12 71(F), 22(C) 61(F), 16(C) 69% 10 SCT055 N/A N/A N/A N/A 74 F 1643
18/08/20 23:06 000 00 N/A N/A 30.12 71(F), 22(C) 61(F), 16(C) 69% 10 SCT055 N/A N/A N/A N/A 74 F 1642
18/08/20 23:05 000 00 N/A N/A 30.12 72(F), 22(C) 62(F), 17(C) 73% 10 SCT055 N/A N/A N/A N/A 74 F 1641
18/08/20 23:04 000 00 N/A N/A 30.12 72(F), 22(C) 62(F), 17(C) 73% 10 SCT055 N/A N/A N/A N/A 74 F 1640
18/08/20 23:03 000 00 N/A N/A 30.12 73(F), 23(C) 62(F), 17(C) 69% 10 CLR N/A N/A N/A N/A 75 F 1639
18/08/20 23:02 000 00 N/A N/A 30.12 73(F), 23(C) 62(F), 17(C) 69% 10 CLR N/A N/A N/A N/A 75 F 1638
18/08/20 23:01 000 00 N/A N/A 30.12 72(F), 22(C) 62(F), 17(C) 73% 10 CLR N/A N/A N/A N/A 74 F 1637
18/08/20 23:00 000 00 N/A N/A 30.12 72(F), 22(C) 62(F), 17(C) 73% 10 CLR N/A N/A N/A N/A 74 F 1636
18/08/20 22:59 000 00 N/A N/A 30.12 72(F), 22(C) 62(F), 17(C) 73% 10 CLR N/A N/A N/A N/A 74 F 1635
18/08/20 22:58 000 00 N/A N/A 30.12 71(F), 22(C) 62(F), 17(C) 73% 10 CLR N/A N/A N/A N/A 73 F 1634
18/08/20 22:57 000 00 N/A N/A 30.12 71(F), 22(C) 62(F), 17(C) 73% 10 CLR N/A N/A N/A N/A 73 F 1633
18/08/20 22:56 000 00 N/A N/A 30.12 71(F), 22(C) 62(F), 17(C) 73% 10 CLR N/A N/A N/A N/A 73 F 1632
18/08/20 22:55 000 00 N/A N/A 30.12 72(F), 22(C) 63(F), 17(C) 73% 10 CLR N/A N/A N/A N/A 74 F 1631
18/08/20 22:54 000 00 N/A N/A 30.12 72(F), 22(C) 63(F), 17(C) 73% 10 CLR N/A N/A N/A N/A 74 F 1630
18/08/20 22:53 000 00 N/A N/A 30.12 72(F), 22(C) 63(F), 17(C) 73% 10 CLR N/A N/A N/A N/A 74 F 1629
18/08/20 22:52 000 00 N/A N/A 30.12 73(F), 23(C) 62(F), 17(C) 69% 10 CLR N/A N/A N/A N/A 75 F 1628
18/08/20 22:51 000 00 N/A N/A 30.12 73(F), 23(C) 62(F), 17(C) 69% 10 CLR N/A N/A N/A N/A 75 F 1627
18/08/20 22:50 000 00 N/A N/A 30.12 73(F), 23(C) 62(F), 17(C) 69% 10 CLR N/A N/A N/A N/A 75 F 1626
18/08/20 22:49 000 00 N/A N/A 30.12 73(F), 23(C) 62(F), 17(C) 69% 10 CLR N/A N/A N/A N/A 75 F 1625
18/08/20 22:48 000 00 N/A N/A 30.12 73(F), 23(C) 61(F), 16(C) 65% 10 CLR N/A N/A N/A N/A 76 F 1624
18/08/20 22:47 000 00 N/A N/A 30.12 73(F), 23(C) 61(F), 16(C) 65% 10 CLR N/A N/A N/A N/A 76 F 1623
18/08/20 22:46 000 00 N/A N/A 30.12 73(F), 23(C) 61(F), 16(C) 65% 10 CLR N/A N/A N/A N/A 76 F 1622
18/08/20 22:45 000 00 N/A N/A 30.12 73(F), 23(C) 61(F), 16(C) 65% 10 CLR N/A N/A N/A N/A 76 F 1621
18/08/20 22:44 000 00 N/A N/A 30.12 73(F), 23(C) 61(F), 16(C) 65% 10 CLR N/A N/A N/A N/A 76 F 1620
18/08/20 22:43 000 00 N/A N/A 30.12 73(F), 23(C) 62(F), 17(C) 69% 10 CLR N/A N/A N/A N/A 75 F 1619
18/08/20 22:42 000 00 N/A N/A 30.12 73(F), 23(C) 62(F), 17(C) 69% 10 CLR N/A N/A N/A N/A 75 F 1618
18/08/20 22:41 000 00 N/A N/A 30.12 73(F), 23(C) 62(F), 17(C) 69% 10 CLR N/A N/A N/A N/A 75 F 1617
18/08/20 22:40 000 00 N/A N/A 30.12 73(F), 23(C) 62(F), 17(C) 69% 10 CLR N/A N/A N/A N/A 75 F 1616
18/08/20 22:39 000 00 N/A N/A 30.12 73(F), 23(C) 62(F), 17(C) 69% 10 CLR N/A N/A N/A N/A 75 F 1615
18/08/20 22:38 000 00 N/A N/A 30.12 73(F), 23(C) 62(F), 17(C) 69% 10 CLR N/A N/A N/A N/A 75 F 1614
18/08/20 22:37 000 00 N/A N/A 30.11 73(F), 23(C) 63(F), 17(C) 69% 10 CLR N/A N/A N/A N/A 75 F 1613
18/08/20 22:36 000 00 N/A N/A 30.11 73(F), 23(C) 63(F), 17(C) 69% 10 CLR N/A N/A N/A N/A 75 F 1612
18/08/20 22:35 000 00 N/A N/A 30.12 73(F), 23(C) 63(F), 17(C) 69% 10 CLR N/A N/A N/A N/A 75 F 1611
18/08/20 22:34 000 00 N/A N/A 30.12 73(F), 23(C) 62(F), 17(C) 69% 10 CLR N/A N/A N/A N/A 75 F 1610
18/08/20 22:33 000 00 N/A N/A 30.12 73(F), 23(C) 62(F), 17(C) 69% 10 CLR N/A N/A N/A N/A 75 F 1609
18/08/20 22:32 000 00 N/A N/A 30.12 73(F), 23(C) 62(F), 17(C) 69% 10 CLR N/A N/A N/A N/A 75 F 1608
18/08/20 22:31 000 00 N/A N/A 30.12 73(F), 23(C) 61(F), 16(C) 65% 10 CLR N/A N/A N/A N/A 76 F 1607
18/08/20 22:30 000 00 N/A N/A 30.12 73(F), 23(C) 61(F), 16(C) 65% 10 CLR N/A N/A N/A N/A 76 F 1606
18/08/20 22:29 000 00 N/A N/A 30.12 73(F), 23(C) 61(F), 16(C) 65% 10 CLR N/A N/A N/A N/A 76 F 1605
18/08/20 22:28 000 00 N/A N/A 30.12 73(F), 23(C) 61(F), 16(C) 65% 10 CLR N/A N/A N/A N/A 76 F 1604
18/08/20 22:27 000 00 N/A N/A 30.12 73(F), 23(C) 61(F), 16(C) 65% 10 CLR N/A N/A N/A N/A 76 F 1603
18/08/20 22:26 000 00 N/A N/A 30.12 73(F), 23(C) 61(F), 16(C) 65% 10 CLR N/A N/A N/A N/A 76 F 1602
18/08/20 22:25 000 00 N/A N/A 30.12 73(F), 23(C) 61(F), 16(C) 65% 10 CLR N/A N/A N/A N/A 76 F 1601
18/08/20 22:24 000 00 N/A N/A 30.12 73(F), 23(C) 61(F), 16(C) 65% 10 CLR N/A N/A N/A N/A 76 F 1600
18/08/20 22:23 000 00 N/A N/A 30.12 73(F), 23(C) 61(F), 16(C) 65% 10 CLR N/A N/A N/A N/A 76 F 1599
18/08/20 22:22 000 00 N/A N/A 30.12 73(F), 23(C) 61(F), 16(C) 65% 10 CLR N/A N/A N/A N/A 76 F 1598
18/08/20 22:21 000 00 N/A N/A 30.12 73(F), 23(C) 61(F), 16(C) 65% 10 CLR N/A N/A N/A N/A 76 F 1597
18/08/20 22:20 000 00 N/A N/A 30.12 73(F), 23(C) 61(F), 16(C) 65% 10 CLR N/A N/A N/A N/A 76 F 1596